Regional Weather Roundup
Issued by NWS Cleveland, OH

Home | Current Version | Previous Version | Graphics & Text | Print | Product List | Glossary On
Versions: 1 2 3 4 5 6 7 8 9 10 11 12 13 14 15 16 17 18 19 20 21 22 23 24 25 26 27 28 29 30 31 32 33 34 35 36 37 38 39 40 41 42 43 44 45 46 47 48 49 50
000
ASUS41 KCLE 140410
RWRCLE
OHIO REGIONAL WEATHER ROUNDUP
NATIONAL WEATHER SERVICE WILMINGTON, OH
1100 PM EST WED DEC 13 2017

NOTE: "FAIR" INDICATES FEW OR NO CLOUDS BELOW 12,000 FEET WITH NO
SIGNIFICANT WEATHER AND/OR OBSTRUCTIONS TO VISIBILITY.

OHZ001>008-015>018-024>027-034-035-043-044-140500-
   NORTHWEST OHIO

CITY           SKY/WX    TMP DP  RH WIND       PRES   REMARKS
DEFIANCE       LGT SNOW  31  28  89 NW18G31   29.43R VSB 1   WCI  19
FINDLAY        LGT SNOW  33  28  81 W25G37    29.38R WCI  20
TOLEDO EXPRESS LGT SNOW  25  24  96 N9        29.40R FOG     WCI  15
TOLEDO EXEC    LGT SNOW  26  23  88 N9        29.39R FOG     WCI  17
LIMA           CLOUDY    33  28  81 W29G36    29.42R WCI  19
$$

OHZ009>014-019>023-028>033-038-089-140500-
   NORTHEAST OHIO

CITY           SKY/WX    TMP DP  RH WIND       PRES   REMARKS
CLE-HOPKINS    LGT SNOW  24  21  88 SE8       29.38F VSB 1   WCI  15
CLE-LAKEFRONT  LGT SNOW  24  20  84 E3        29.38S VSB 1
CUY CO. ARPT   LGT SNOW  23  19  86 E6        29.39S WCI  16
LORAIN-ELYRIA  LGT SNOW  24  18  77 S12       29.35F WCI  13
ASHTABULA      LGT SNOW  21  18  88 E7        29.43F VSB 1   WCI  12
AKRON-CANTON   LGT SNOW  23  19  85 S10       29.36F VSB 1   WCI  12
WOOSTER        LGT SNOW  24  22  91 SW10      29.35F FOG     WCI  14
MANSFIELD      LGT SNOW  29  26  89 SW13      29.33S FOG     WCI  19
YOUNGSTOWN     LGT SNOW  22  18  85 SE7       29.38F VSB 3/4 WCI  13
$$

OHZ042-051>053-060>062-070>072-077>081-140500-
  SOUTHWEST OHIO

CITY           SKY/WX    TMP DP  RH WIND       PRES   REMARKS
CINC-COVINGTON CLOUDY    41  30  65 W32G41    29.55R
CINC-LUNKEN    CLOUDY    42  29  59 W26G43    29.57R
HAMILTON       CLOUDY    41  29  62 W21G31    29.55R
DAYTON         CLOUDY    34  30  85 W28G40    29.50R WCI  21
WRIGHT-PAT AFB CLOUDY    36  30  81 W25G32    29.48R
DAYTON GENERAL CLOUDY    36  30  79 W21G32    29.50R
WILMINGTON     LGT RAIN  38  32  79 NW32G43   29.48R
$$

OHZ036-037-039>041-045>050-054>059-063>069-073>076-082>088-140500-
  CENTRAL AND SOUTHEAST OHIO

CITY           SKY/WX    TMP DP  RH WIND       PRES   REMARKS
COLUMBUS       FLURRIES  37  32  82 W18G29    29.42R
OSU AIRPORT    FLURRIES  36  32  85 W26G38    29.42R
BOLTON FIELD   CLOUDY    37  31  78 W25G36    29.44R
RICKENBACK AFB CLOUDY    37  30  75 W30G39    29.44R
NEWARK         MIX PCPN  36  27  69 W17G28    29.41R
MARION         LGT SNOW  34  30  85 W16G26    29.38R FOG     WCI  24
LANCASTER      CLOUDY    39  29  67 W24G40    29.43R
ZANESVILLE     CLOUDY    32  16  51 S8        29.41S WCI  25
NEW PHILLY     FLURRIES  25  22  88 S5        29.40F WCI  19
$$



USA.gov is the U.S. government's official web portal to all federal, state and local government web resources and services.